Terminal Aerodrome Forecast
Issued by NWS Rapid City, SD

Home | Current Version | Previous Version | Graphics & Text | Print | Product List | Glossary On
Versions: 1 2 3 4 5 6 7 8 9 10 11 12 13 14 15
000
FTUS43 KUNR 252100 AAA
TAFRAP
TAF AMD
KRAP 252100Z 2521/2618 34014KT P6SM SCT080
      TEMPO 2521/2523 -TSRA BKN060CB
     FM260000 33010KT P6SM SCT100=

USA.gov is the U.S. government's official web portal to all federal, state and local government web resources and services.